Regional Weather Roundup
Issued by NWS Newport/Morehead, NC

Current Version | Previous Version | Graphics & Text | Print | Product List | Glossary Off
Versions: 1 2 3 4 5 6 7 8 9 10 11 12 13 14 15 16 17 18 19 20 21 22 23 24 25 26 27 28 29 30 31 32 33 34 35 36 37 38 39 40 41 42 43 44 45 46 47 48 49 50

000
ASUS42 KMHX 200210
RWRMHX
WEATHER ROUNDUP FOR EASTERN NORTH CAROLINA
NATIONAL WEATHER SERVICE NEWPORT/MOREHEAD CITY NC
1000 PM EDT FRI SEP 19 2014

NOTE: "FAIR" INDICATES FEW OR NO CLOUDS BELOW 12,000 FEET
WITH NO SIGNIFICANT WEATHER AND/OR OBSTRUCTIONS TO VISIBILITY

NCZ015>017-031-032-045>047-102-103-200300-
NORTH COAST

CITY           SKY/WX    TMP DP  RH WIND       PRES   REMARKS
EDENTON        CLEAR     64  59  83 CALM      30.25R
ELIZABETH CITY CLEAR     68  60  75 NE7       30.25R
KITTY HAWK     PTCLDY    72  57  59 NE9G20    30.22S
MANTEO         PTCLDY    71  57  61 NE15G21   30.24S

$$

NCZ045>047-081-094-103-104-200300-
CENTRAL COAST

CITY           SKY/WX    TMP DP  RH WIND       PRES   REMARKS
FRISCO         MOCLDY    70  61  73 NE8G20    30.20S
SWANQUARTER      N/A     68 N/A N/A N8        30.18S

$$

NCZ095-097-098-100-101-200300-
SOUTHERN COAST

CITY           SKY/WX    TMP DP  RH WIND       PRES   REMARKS
BEAUFORT       CLOUDY    72  63  73 NE7       30.19S
CEDAR ISLAND     N/A     73 N/A N/A NE17G28   30.24S
JACKSONVILLE   CLOUDY    70  60  70 NE13      30.18F
NEWPORT        NOT AVBL
PINEY ISLAND   MOCLDY    75  63  66 NE20G25   30.19F
WILMINGTON     CLOUDY    70  62  76 NE12      30.17R


$$

NCZ011>013-027>030-043-044-078>080-089-090>093-098-200300-
COASTAL PLAIN

CITY           SKY/WX    TMP DP  RH WIND       PRES   REMARKS
AHOSKIE        CLEAR     64  58  81 CALM      30.25S
CLINTON        CLEAR     69  62  78 NE3       30.20R
ELIZABETHTOWN  PTCLDY    68  61  76 CALM      30.18R
GOLDSBORO      CLEAR     67  64  89 E10       30.19S
GREENVILLE     CLEAR     64  59  82 E5        30.24S
HAVELOCK       CLOUDY    71  60  68 NE13      30.21S
KENANSVILLE    PTCLDY    67  59  77 CALM      30.21S
KINSTON        PTCLDY    68  59  73 NE7       30.22S
NEW BERN       MOCLDY    70  59  68 NE9       30.22R
RICHLANDS      MOCLDY    66  57  72 NE9       30.20S
ROANOKE RAPIDS NOT AVBL
ROCKY MOUNT    CLEAR     64  58  80 NE3       30.24R
WASHINGTON     CLEAR     65  58  79 NE7       30.23S
WHITEVILLE     MOCLDY    71  63  76 NE6       30.16S

$$

AMZ130-135-150-152-154-156-158-170-250-252-270-ANZ085-086-088-633-658-670-200300-
MARINE OBSERVATIONS

STATION/POSITION TIME  TEMP    WIND        PRES    WAVE   SWELL
                       AIR SEA DIR/SP/G            HT/PER HT/PER
                 (UTC) (F)     (DEG/KT/KT) (MB)    (FT/S) (FT/S)
CHESAPEAKE LIGHT 0100   71      70/ 15/ 17 1025.0
BUOY 44014       0200   73 75   50/ 16/ 19 1023.6    4/ 6   2/10
DUCK             0200   73 75   70/ 18/ 20 1023.2
2E DUCK          0200                        N/A     4/ 5
OREGON INLET     0200   73 74   40/ 15/ 20 1023.2
BUOY 44095       0200      75                N/A     5/ 6   2/11
20E OREGON INLET NOT AVBL
HATTERAS CG      0200   73 76   40/ 11/ 19 1023.1
DIAMOND BUOY     0200   76      60/ 17/ 21 1021.9    7/ 7   2/11
CAPE LOOKOUT     0100   75      40/ 23/ 26 1021.9
BEAUFORT LAB     0200   72 77   40/  8/ 12 1021.7
30 SE NEW RIVER  0200   76 83   60/ 19/ 21 1021.4    7/ 6   2/10
5 SE WRIGHTSVILL 0100   74 80   60/ 21/ 27   N/A
BUOY 41002       0121   79 82   70/ 23/ 27 1018.2    7/ 7   2/12
BUOY 41004       0200   77 82   90/ 25/ 29 1017.1    6/ 6   2/10

$$



USA.gov is the U.S. government's official web portal to all federal, state and local government web resources and services.